Theta_e
358 357 362 366 355 342 339 340 342 345 346 345 346 347 348 348 349 350 351 351 351 351 350 350 348 350 352 352 351 351 351 350 351 351 352 354 354 354 353 352 353 354 354 352 351 353 354 354 355 355 356 355 351 349 351 354 353 352 353 354 356 356 355
357 356 357 362 361 352 342 338 340 343 345 346 346 346 348 349 349 350 350 351 351 350 350 349 349 349 351 352 352 351 351 350 352 352 353 354 355 355 354 353 353 353 353 353 352 352 353 354 355 355 356 356 353 350 352 356 356 355 354 354 355 356 356
357 357 356 359 362 359 351 344 341 341 343 346 346 346 348 349 349 349 349 351 351 350 350 349 349 349 349 351 352 351 351 351 353 354 355 355 355 355 355 353 352 352 352 353 352 353 353 354 355 355 355 356 354 352 354 356 357 357 356 354 355 356 356
357 357 355 355 356 356 353 349 347 345 342 343 345 346 348 349 349 349 349 350 351 350 350 350 350 350 348 349 351 351 351 351 353 354 355 354 353 354 355 352 350 351 352 352 353 353 354 354 355 355 355 354 354 353 355 357 357 357 357 356 355 357 357
355 354 353 353 353 354 354 351 350 351 347 343 343 345 348 349 349 350 350 350 351 350 350 350 350 351 349 349 350 350 351 351 352 354 354 353 353 354 354 353 351 352 352 352 353 353 354 354 354 355 354 353 353 353 354 356 357 357 357 356 357 357 358
351 351 352 353 352 351 351 351 351 352 351 347 344 344 347 349 350 350 350 351 351 351 351 352 351 351 351 350 349 349 350 350 351 352 353 353 353 354 354 354 353 353 352 353 354 355 354 354 354 354 354 354 354 353 353 355 356 356 357 357 357 358 358
350 348 349 350 349 347 347 349 351 353 352 350 348 346 346 349 351 351 351 351 352 351 352 353 352 352 351 351 350 350 350 349 349 351 353 352 353 355 355 354 354 354 354 355 355 356 356 356 355 354 355 355 354 354 354 353 355 356 357 357 357 357 357
348 347 347 347 346 345 345 346 349 352 352 350 350 350 349 350 352 352 352 352 352 352 352 353 354 353 353 353 353 352 351 350 348 349 351 352 352 354 355 355 355 355 355 356 356 356 357 357 356 356 355 355 355 355 354 354 354 355 356 357 356 355 355
345 345 345 344 344 344 344 345 346 348 350 351 351 351 350 351 352 353 353 353 353 354 353 353 355 355 355 354 354 354 353 352 351 351 351 351 351 353 354 355 355 355 355 356 356 356 356 357 357 357 356 356 356 355 354 354 354 355 356 356 356 355 353
343 343 342 342 343 343 343 343 344 345 348 350 351 351 350 351 352 353 353 353 354 354 354 354 355 356 356 356 355 354 354 354 354 354 353 353 351 351 353 354 355 355 355 356 356 356 356 356 356 357 356 356 356 355 355 355 355 355 356 356 357 356 355
342 342 341 342 343 343 343 343 343 344 346 349 350 350 349 350 351 352 352 352 353 352 352 353 355 356 357 357 357 356 356 355 355 355 355 354 352 351 352 353 354 354 355 354 355 355 355 355 355 354 355 356 355 355 354 355 355 355 356 356 356 356 356
339 339 339 341 342 343 342 343 343 344 345 347 349 349 349 349 350 350 350 351 352 351 351 351 353 355 356 358 358 358 358 357 356 356 355 354 354 353 352 353 354 354 354 353 354 354 354 354 353 352 353 355 355 354 354 354 355 355 355 356 356 355 356
337 337 338 339 341 341 342 343 343 344 344 346 347 347 348 349 349 348 347 348 349 351 352 352 352 352 354 356 356 357 357 358 358 357 356 356 356 355 354 354 354 355 354 353 353 354 354 353 353 352 352 353 353 353 354 354 354 355 354 355 355 355 355
336 336 337 338 339 340 342 342 343 343 343 344 346 347 347 348 348 349 348 348 348 348 350 351 351 351 352 353 354 354 355 356 357 356 356 356 356 356 356 355 355 355 354 355 354 354 354 353 353 352 352 351 352 352 353 353 354 354 354 354 354 354 354
335 335 336 337 338 339 340 341 342 343 343 344 345 346 346 347 348 349 350 351 350 350 350 350 350 350 351 352 352 352 352 352 353 353 353 354 354 354 355 354 354 354 353 353 353 352 352 352 352 353 351 351 351 351 352 352 353 353 353 353 354 353 354
334 334 334 334 334 335 335 336 338 340 342 343 344 345 344 345 347 348 350 351 352 352 352 351 352 351 351 351 351 351 351 350 350 351 351 353 353 353 353 353 353 353 352 351 349 349 349 350 350 351 351 351 351 351 352 352 352 351 352 352 352 353 353
332 332 332 331 331 331 331 333 334 337 340 342 343 344 343 343 345 345 346 348 349 351 352 352 352 352 352 352 351 351 351 350 350 351 351 352 352 353 353 353 353 352 352 351 350 348 348 348 349 350 350 350 350 350 350 351 351 350 350 351 351 352 353
330 330 330 330 331 331 330 332 334 336 338 340 341 341 340 340 341 341 342 344 345 347 349 349 350 351 351 351 351 351 350 350 350 350 350 350 351 352 352 351 350 350 350 350 349 348 347 347 348 348 349 349 349 348 348 349 349 350 350 350 351 351 352
328 328 329 329 330 330 330 331 333 334 335 336 337 337 336 337 338 338 340 342 342 343 344 344 344 344 346 347 347 348 349 350 350 350 351 351 351 350 350 348 349 349 348 349 349 348 348 348 348 348 348 347 347 347 347 348 349 349 350 351 351 351 352
326 327 327 327 328 328 329 330 332 333 333 334 334 333 333 334 334 335 337 338 339 339 340 340 340 340 340 340 340 340 342 344 346 346 348 349 349 350 349 349 350 349 349 350 350 349 350 350 350 351 350 349 347 347 347 348 349 350 350 350 350 351 352
326 326 326 327 328 328 329 330 330 331 331 332 332 331 331 331 331 332 333 334 334 335 335 336 337 338 339 340 339 339 338 339 340 341 342 344 347 348 347 346 347 348 349 349 349 350 350 350 351 352 352 352 351 349 348 348 349 350 351 351 351 351 351
325 325 326 327 327 327 327 327 328 328 329 330 331 331 331 330 329 329 329 330 331 332 332 332 333 334 335 335 336 337 339 339 339 338 339 340 343 343 342 341 340 341 342 343 343 345 347 347 347 347 347 349 351 352 352 352 351 351 351 352 353 352 352
323 324 325 325 325 325 326 326 327 327 328 330 331 331 331 331 330 329 329 329 329 329 329 329 329 330 331 331 330 331 335 338 339 338 339 339 340 340 340 340 339 338 338 338 338 340 342 343 343 344 344 345 348 350 351 352 353 353 353 354 354 354 353
323 324 324 324 325 325 325 326 326 326 328 329 329 331 332 332 332 331 331 331 330 329 328 328 327 327 328 329 329 329 330 335 338 340 341 342 342 342 341 342 342 342 342 342 342 342 342 342 342 342 342 343 345 349 350 351 352 353 354 355 355 355 355
323 323 323 323 323 324 325 325 326 326 327 327 327 328 330 330 330 329 329 329 329 330 330 330 329 328 327 327 326 327 329 331 335 337 338 339 339 339 338 339 341 343 344 346 345 343 340 339 338 336 335 336 338 342 345 345 344 345 348 351 353 354 356
321 321 322 322 322 322 323 324 324 324 324 324 324 326 327 327 327 326 326 326 327 327 328 329 330 329 327 326 324 325 329 331 331 332 332 333 334 335 337 339 341 343 343 342 342 340 338 337 335 332 331 332 333 334 336 336 336 337 342 346 349 351 352
320 321 321 321 321 321 321 322 322 322 322 322 323 324 325 325 324 324 324 324 324 325 325 327 329 330 328 327 325 324 327 330 330 330 330 331 333 335 336 336 337 337 335 332 331 332 333 332 331 330 329 330 330 330 331 332 333 335 340 344 345 348 350
320 320 320 320 320 320 320 320 320 320 320 321 321 322 323 323 323 322 322 322 322 323 323 324 327 329 329 328 326 325 326 328 329 329 329 330 331 332 332 331 331 330 328 327 327 328 328 328 329 329 328 328 327 327 328 330 331 335 339 340 339 340 343
319 319 319 319 319 319 319 319 319 320 320 320 320 321 321 321 321 321 322 322 321 322 323 323 325 327 328 328 327 325 325 326 328 328 328 328 327 328 328 328 328 327 326 326 327 327 328 328 328 328 328 327 327 327 328 329 330 333 335 335 333 334 336
317 318 318 319 319 319 319 319 319 319 319 319 320 320 320 320 321 321 321 321 321 322 322 323 323 325 326 327 327 325 324 325 327 327 326 325 324 323 322 323 325 326 326 326 326 326 325 323 323 324 324 324 325 327 328 329 331 331 332 333 333 333 333
316 317 318 318 318 318 318 318 318 318 318 319 319 320 320 320 321 321 322 322 321 321 322 322 323 323 324 325 326 325 324 324 326 326 326 325 323 321 320 322 324 326 326 326 325 323 320 317 316 317 319 320 323 326 328 329 331 331 331 331 332 333 333
316 316 317 317 318 318 318 318 317 317 317 318 319 320 321 321 321 322 322 322 321 321 322 322 323 323 324 324 325 325 325 325 326 326 325 324 323 321 321 322 324 325 325 324 322 320 317 316 317 319 321 322 324 326 328 329 330 330 329 329 330 332 332
315 316 316 317 317 317 317 317 316 315 316 317 319 320 321 321 321 321 322 322 322 322 323 323 324 324 324 324 325 325 326 326 325 325 324 323 322 321 321 321 323 323 323 321 319 318 317 318 320 322 323 324 325 326 328 329 329 329 328 329 329 330 330
315 316 317 317 317 317 316 316 315 315 316 318 319 319 320 320 320 320 322 322 323 323 324 324 324 324 324 324 324 324 325 324 324 323 323 322 322 322 322 322 322 321 320 319 318 317 318 319 321 322 322 322 324 325 327 327 327 327 328 328 328 327 327
315 316 317 317 317 316 316 315 314 314 316 317 318 318 318 318 318 319 320 321 321 323 324 324 324 324 324 324 323 323 323 323 323 323 323 323 323 323 322 321 321 320 319 318 317 318 318 319 320 321 322 323 324 325 326 326 325 326 327 326 325 324 323
315 316 316 316 316 316 315 315 314 314 315 316 317 317 317 317 317 317 318 318 319 320 321 321 323 323 322 322 323 322 322 321 321 321 321 321 321 321 321 320 319 319 318 318 317 318 318 319 319 320 322 324 325 324 324 324 323 324 324 323 322 322 322
315 316 316 316 316 315 315 315 314 314 315 315 315 316 316 315 315 315 316 316 316 317 318 319 320 320 320 320 320 320 320 320 319 319 319 319 319 319 319 319 319 318 318 318 317 317 317 318 318 320 322 324 325 324 322 321 322 321 321 321 321 321 321
315 316 316 315 315 315 315 315 314 314 315 315 314 314 314 314 314 314 315 314 314 314 315 316 317 318 316 316 316 317 317 317 317 317 317 317 317 317 317 318 318 318 317 317 317 317 317 318 319 319 320 322 324 324 321 320 320 320 319 320 320 319 320
Wind_Speed
3 5 4 3 5 9 11 16 21 23 25 27 28 29 29 29 29 30 30 31 31 30 29 27 27 28 28 25 23 23 23 21 20 20 19 18 18 17 18 19 18 17 17 16 15 15 14 13 13 13 12 11 11 13 13 11 10 10 11 11 10 10 11
2 1 1 3 3 6 11 17 20 21 24 27 28 29 29 29 30 30 31 32 32 32 31 28 27 29 29 26 24 23 23 21 20 20 20 19 19 19 19 19 19 19 18 17 15 15 15 14 14 14 13 12 12 13 14 12 11 11 12 13 12 11 12
3 3 1 0 3 3 5 12 16 19 23 25 26 28 29 30 32 33 33 33 33 32 32 30 29 29 30 27 25 25 24 22 21 21 21 20 20 20 20 19 20 19 19 18 16 15 15 15 15 14 14 14 13 14 14 14 12 12 13 14 14 13 13
5 5 3 3 3 4 3 9 13 15 20 22 24 27 30 32 34 34 34 34 34 32 32 33 32 31 30 29 27 27 26 25 23 22 21 20 19 20 20 20 20 20 20 19 17 17 16 16 16 15 15 15 14 15 15 15 13 12 13 13 14 14 14
7 7 6 5 6 4 2 4 8 10 13 18 21 24 27 29 31 31 32 33 34 34 34 34 33 32 31 31 30 29 28 27 26 24 22 19 19 20 20 20 21 21 21 19 18 18 17 17 16 16 16 15 15 16 16 16 15 13 13 14 14 14 15
7 7 7 5 3 4 5 3 4 8 13 16 19 22 24 25 26 27 28 29 31 31 30 31 32 32 31 31 30 30 29 27 27 26 24 20 18 19 21 21 21 21 21 20 19 18 18 18 17 17 17 16 15 16 17 17 17 15 14 14 15 15 15
5 5 6 6 6 3 5 6 5 8 12 14 14 17 22 24 25 25 24 24 25 26 25 26 28 29 30 30 30 29 29 27 27 27 26 22 19 19 20 20 21 22 22 21 20 19 19 19 19 18 18 17 17 17 17 18 18 17 16 15 16 16 16
5 5 6 5 7 5 4 7 9 6 9 11 12 13 17 21 22 22 20 20 22 23 24 24 24 25 25 26 27 27 27 26 26 27 26 24 21 20 20 20 20 21 21 22 21 20 20 19 19 19 19 19 19 18 18 18 18 18 17 16 16 16 16
6 6 8 8 8 7 6 9 12 11 9 9 11 13 14 15 16 18 19 21 22 21 22 22 22 23 22 23 24 25 25 25 25 25 26 25 24 22 21 21 20 20 21 22 21 21 21 20 20 20 20 21 21 20 20 19 19 18 18 18 17 16 17
6 6 7 9 8 7 10 13 14 17 18 12 10 12 14 16 17 17 18 18 19 20 20 19 19 21 22 23 24 24 25 25 25 25 26 26 25 25 23 22 21 21 21 21 21 22 22 22 21 21 22 22 22 22 21 21 21 20 19 19 18 18 18
5 5 5 7 7 6 8 11 13 16 16 13 11 12 13 15 17 18 18 16 14 14 14 15 17 19 20 22 23 24 25 25 26 26 27 27 27 26 25 24 23 23 23 22 22 23 23 24 23 23 23 23 23 23 23 23 23 22 21 21 20 20 19
5 5 6 7 7 5 6 8 11 13 13 11 11 13 15 15 14 16 18 17 16 14 13 13 15 18 20 21 22 24 25 26 26 27 28 29 28 27 26 25 25 25 24 24 24 24 24 25 26 26 26 26 25 25 25 24 24 24 24 23 22 22 22
7 6 6 6 7 6 6 8 10 12 12 10 11 15 18 18 16 16 16 17 17 19 18 16 16 20 23 23 23 23 24 26 27 28 28 28 28 27 26 25 25 25 25 25 25 25 25 26 27 27 27 27 27 27 26 25 25 25 24 24 24 24 24
10 9 7 7 7 7 6 6 8 10 11 10 11 14 16 17 17 17 17 17 17 18 20 20 20 22 24 24 23 23 23 24 25 26 25 25 25 25 25 24 24 24 24 25 25 25 26 26 28 28 28 28 28 28 28 27 27 26 26 25 24 25 25
11 10 9 8 8 7 6 5 6 9 10 9 11 13 14 14 15 15 15 15 15 16 17 19 19 20 20 20 20 20 19 19 20 20 19 17 16 16 17 19 21 21 21 21 22 24 25 27 28 29 29 29 29 29 29 29 29 28 27 26 25 25 26
10 10 9 8 8 7 6 6 8 10 10 9 9 11 12 12 11 12 13 13 13 13 13 14 14 13 14 13 12 13 13 13 14 14 14 13 12 11 12 15 19 21 21 19 18 18 20 24 27 29 30 30 29 29 30 31 31 31 30 29 27 27 27
10 10 9 8 8 8 7 8 10 11 11 11 10 11 11 10 10 12 14 14 14 12 12 12 11 10 8 7 7 7 8 8 9 9 9 9 12 16 17 17 17 19 21 22 19 17 15 18 23 27 29 30 29 29 30 31 32 32 31 31 30 29 29
10 9 9 8 8 8 8 9 11 11 12 13 13 13 13 13 14 15 14 15 16 16 15 14 12 11 10 8 7 7 7 6 6 5 5 5 9 12 14 13 11 13 18 22 21 19 15 13 17 21 24 25 25 25 26 28 30 31 31 32 32 31 31
10 8 8 8 8 8 9 11 13 14 14 16 16 15 16 17 18 17 14 14 16 18 17 14 13 13 12 11 11 9 8 9 9 9 8 6 4 5 7 9 9 10 15 18 19 18 16 14 14 16 19 20 19 19 19 20 22 25 27 29 31 31 31
10 9 8 8 8 9 11 14 15 16 17 17 17 17 18 19 20 19 17 16 18 20 18 13 12 14 14 13 13 12 10 9 10 10 10 8 7 6 5 6 7 8 9 11 13 12 12 12 12 11 13 15 16 16 16 15 15 16 18 21 24 27 29
10 10 9 7 8 11 14 16 16 16 16 16 17 18 19 20 20 20 19 18 20 21 20 16 14 15 14 13 12 12 11 10 10 10 8 7 7 9 9 7 5 6 6 4 3 3 3 5 7 9 10 10 11 13 14 14 14 13 13 14 16 19 23
10 11 10 10 12 14 16 18 17 17 17 17 18 19 19 20 21 21 20 20 20 21 21 20 19 18 17 16 15 12 10 10 11 13 12 10 9 10 11 10 6 2 2 3 2 2 2 4 4 5 7 8 7 6 7 9 11 12 12 11 12 13 15
13 14 15 18 20 20 21 21 20 20 20 20 18 17 17 18 19 20 20 20 20 21 20 21 21 19 18 18 17 15 12 10 9 11 13 14 14 14 14 11 8 5 2 2 2 1 1 3 5 5 4 6 6 5 3 3 4 6 7 8 9 10 11
18 19 19 22 23 23 24 23 22 21 21 21 20 17 15 15 16 18 19 19 19 18 19 19 20 19 17 16 15 16 15 13 10 9 10 11 12 11 10 8 6 6 7 6 7 7 6 6 6 5 5 5 6 6 6 6 5 4 5 6 7 8 9
19 21 20 22 24 25 24 24 22 21 21 21 20 17 16 15 16 18 19 18 16 16 16 15 15 16 16 14 13 15 15 15 13 11 11 10 10 10 9 8 7 7 9 11 13 13 13 13 11 10 10 10 10 10 9 9 9 8 7 7 7 8 8
18 20 21 22 23 24 24 23 22 21 20 19 17 15 15 15 16 18 18 17 17 17 16 13 10 11 12 13 13 14 14 14 14 14 14 14 14 15 14 13 13 11 11 13 14 14 15 15 15 14 13 12 13 13 14 14 13 11 10 10 8 7 6
21 22 22 22 23 25 24 23 21 20 18 16 14 13 13 13 15 16 16 16 17 17 16 13 9 6 8 11 13 15 15 15 15 15 17 18 18 19 19 18 18 17 16 15 14 15 16 16 16 15 13 12 13 15 16 17 16 14 13 13 11 9 7
21 21 22 23 24 26 25 23 20 19 17 14 13 12 11 11 13 14 14 15 16 14 13 13 10 6 5 7 12 15 14 14 15 16 17 17 17 18 19 19 18 18 17 16 16 16 17 17 16 15 14 14 16 18 18 18 18 17 15 14 15 13 11
20 20 21 22 24 25 26 24 21 19 17 14 12 11 10 10 12 13 12 13 14 11 10 10 10 8 6 6 9 13 13 13 13 14 16 16 16 17 17 18 18 18 17 17 17 17 18 18 18 17 17 17 18 20 20 19 19 17 15 15 17 17 14
20 20 20 22 23 25 26 25 22 19 17 14 12 11 10 10 11 11 11 12 11 9 8 8 8 8 7 6 6 9 11 11 11 12 14 14 15 16 17 16 16 17 17 17 17 18 19 20 20 20 20 21 20 21 20 20 19 19 17 16 17 17 16
20 21 21 22 24 25 25 24 22 20 18 15 13 11 10 10 10 10 11 10 8 7 7 7 8 8 7 6 6 6 7 8 9 10 11 13 14 16 17 16 15 16 17 17 17 18 20 21 21 21 21 21 22 22 21 20 19 19 19 19 18 16 16
19 21 22 23 24 25 25 23 22 20 18 16 13 12 11 10 10 10 10 8 6 6 6 6 7 8 7 7 5 4 4 6 6 7 9 11 13 15 15 15 15 15 16 17 18 19 21 21 21 21 21 22 22 22 21 19 19 20 20 21 20 18 17
18 20 22 23 24 25 24 23 21 20 18 16 14 12 11 10 11 11 10 7 6 6 5 5 8 9 8 7 5 4 5 7 7 7 8 10 11 12 13 14 14 14 16 18 19 20 21 21 20 21 22 23 23 22 21 20 20 20 22 22 21 19 19
18 20 22 24 25 24 23 22 22 20 19 17 14 12 12 11 11 11 10 10 9 7 7 9 10 11 12 12 10 9 9 9 8 8 8 8 9 10 11 13 13 15 16 18 19 19 20 20 20 21 21 22 23 23 22 21 21 21 22 22 21 20 20
19 21 23 24 23 22 22 22 21 20 19 17 15 13 13 12 12 11 12 12 11 10 10 11 11 12 12 13 13 12 11 10 10 10 9 9 9 10 11 12 13 14 15 16 17 18 18 18 19 20 20 20 21 21 20 20 21 19 18 17 18 19 21
20 21 22 23 22 20 20 19 18 18 17 15 13 13 13 12 12 12 12 13 12 11 12 12 11 12 13 13 13 14 13 13 13 12 12 11 10 9 9 10 12 13 15 15 16 16 16 16 17 19 19 19 19 19 19 19 19 18 16 16 17 19 21
22 22 22 23 22 21 19 18 16 16 15 13 11 11 11 11 11 10 11 12 13 12 13 13 13 14 14 14 14 13 13 13 13 13 13 13 12 11 11 10 10 12 14 15 16 15 14 14 15 17 18 18 17 18 19 19 19 19 18 19 20 21 22
22 23 23 22 22 21 19 17 16 15 14 12 10 10 9 9 9 7 6 9 11 11 12 13 14 15 15 14 13 13 13 12 13 13 13 13 13 13 13 13 14 14 14 15 15 15 14 14 15 16 17 17 16 17 19 20 21 21 21 21 22 23 23
Wind_Direction
142 173 171 137 167 179 178 183 185 182 181 183 183 183 183 183 183 183 185 190 193 194 194 197 201 202 205 209 214 218 218 218 218 217 216 215 216 219 219 220 224 226 223 220 220 219 221 224 228 236 242 245 242 231 228 231 234 235 232 236 244 248 255
0 231 122 78 125 173 177 179 185 185 183 186 185 182 183 184 184 184 186 190 193 196 196 198 201 204 207 210 212 214 214 216 217 218 218 217 221 224 225 226 228 227 223 224 226 225 225 227 230 237 241 242 240 230 226 231 236 239 237 238 244 247 252
36 27 24 87 119 129 149 158 174 187 188 187 185 184 184 186 188 188 189 190 193 196 198 199 201 204 208 210 210 211 211 213 215 218 220 222 224 227 228 229 230 229 227 227 229 229 229 229 231 237 239 240 238 228 224 229 235 240 240 241 245 247 251
107 86 59 337 18 53 93 135 153 176 189 192 189 187 188 189 192 192 191 192 193 195 198 200 202 204 207 210 210 211 211 213 215 218 223 226 228 229 227 227 228 229 229 229 232 233 232 232 231 234 237 237 235 228 225 230 235 238 241 242 244 247 251
115 102 83 30 5 346 353 125 131 137 165 187 192 192 192 192 194 194 194 194 194 197 200 201 202 204 207 210 211 213 216 217 218 219 223 226 229 229 227 227 227 228 229 231 234 235 234 233 232 233 235 234 233 230 228 232 235 238 241 242 244 247 251
117 118 119 108 69 333 343 44 102 122 140 166 182 192 195 194 195 197 197 195 195 197 200 200 201 203 207 210 212 215 218 221 221 221 223 226 228 230 231 231 230 230 231 233 236 236 236 237 236 234 234 233 232 231 231 233 235 238 241 244 247 247 249
112 112 113 106 91 35 354 33 84 138 146 144 152 176 189 193 196 198 198 197 194 195 197 199 202 203 206 209 212 215 218 220 222 222 224 226 228 230 232 234 234 233 234 236 237 237 237 239 238 237 236 235 234 234 235 235 236 236 238 242 246 247 248
86 85 84 81 79 71 20 33 60 110 152 143 125 139 169 183 190 191 191 193 193 194 197 200 202 204 207 209 211 215 218 221 223 223 225 229 230 230 230 232 235 236 237 239 239 239 239 239 239 238 238 237 238 238 239 239 238 236 236 237 241 244 246
63 72 77 72 69 69 54 45 50 62 89 117 116 117 136 154 168 175 180 185 188 189 192 197 201 203 206 210 213 216 220 223 224 224 227 230 232 232 231 231 233 235 238 240 243 243 242 242 242 242 242 241 241 241 240 240 240 238 236 237 238 241 243
62 64 71 72 69 64 65 64 63 68 76 89 110 120 126 132 144 157 166 176 181 181 184 188 194 200 205 208 212 215 220 224 226 226 228 231 234 235 235 235 235 235 237 241 246 247 246 246 247 247 245 242 240 240 241 240 240 239 239 240 243 244 244
84 81 85 87 84 71 70 74 75 85 101 121 134 133 131 131 139 148 153 158 163 170 178 182 186 194 200 205 208 212 217 222 225 226 227 229 232 235 236 238 239 239 240 242 246 249 250 250 250 250 248 244 241 242 243 243 242 241 240 242 245 247 248
105 103 102 104 104 94 87 87 81 86 106 130 136 130 126 126 134 143 151 158 163 172 186 196 201 202 201 202 206 211 216 220 223 226 228 229 231 233 236 239 240 242 242 242 244 248 251 252 252 252 250 248 247 246 246 246 245 245 245 245 246 247 250
107 102 98 99 102 100 100 101 96 92 94 103 119 130 135 142 148 149 152 163 173 182 191 204 219 223 216 209 208 212 217 219 222 225 228 230 231 231 234 238 241 243 244 244 245 248 251 252 253 253 252 251 250 250 249 248 247 248 249 249 250 250 251
104 99 97 98 98 95 94 94 95 98 96 91 102 120 134 146 154 157 159 169 180 187 195 204 215 224 223 218 215 219 223 225 227 228 230 233 235 235 236 238 241 245 247 249 252 254 255 254 254 254 253 253 251 250 250 249 247 248 249 251 252 252 253
102 99 99 102 100 94 92 87 84 92 97 93 93 102 115 131 147 155 155 161 172 180 192 201 206 210 213 215 217 221 226 230 232 231 230 232 235 237 236 235 236 238 242 246 252 258 260 260 258 255 254 253 252 250 249 249 249 249 249 250 251 250 252
103 102 100 99 96 94 92 88 85 88 97 101 93 95 106 119 133 136 128 132 147 160 174 183 184 187 192 197 206 214 221 226 227 224 221 219 218 214 213 219 226 229 230 233 239 248 256 258 257 256 255 255 254 252 248 247 250 252 252 252 252 252 252
105 104 103 98 94 93 89 86 86 87 93 97 94 96 101 96 90 95 100 107 117 129 146 154 152 148 150 157 174 190 198 205 208 209 210 212 214 213 213 216 222 228 230 230 231 234 244 254 254 251 253 255 256 255 252 250 250 253 254 255 254 254 254
105 104 104 101 96 94 91 88 87 86 88 92 92 93 93 87 79 77 82 88 92 102 114 118 118 118 115 112 119 135 147 154 159 167 181 204 219 223 224 226 232 240 243 240 237 235 238 251 255 249 246 249 252 253 253 255 256 256 256 257 257 256 255
104 102 101 98 95 93 89 87 87 88 89 91 92 92 92 92 87 80 82 90 92 97 101 98 95 98 95 92 94 100 116 128 125 117 124 147 185 218 229 233 238 248 257 259 254 248 247 253 262 261 250 244 245 248 249 253 258 258 258 259 260 260 258
108 105 100 100 99 91 85 84 86 87 89 91 93 92 91 91 90 89 92 95 94 96 98 93 87 87 83 79 78 78 85 107 117 110 104 105 107 116 150 184 200 213 243 266 267 261 261 262 266 276 271 253 244 244 246 247 252 257 259 259 260 261 260
114 111 105 101 96 89 85 85 84 81 82 88 94 94 90 88 91 93 92 91 89 90 94 92 84 81 79 74 69 69 73 84 96 96 90 90 95 98 103 110 133 164 179 212 248 254 290 297 283 283 291 282 258 246 247 248 247 251 257 260 262 262 260
118 113 111 106 96 90 87 85 83 81 81 87 93 93 90 87 88 88 86 85 84 82 83 84 78 74 73 68 59 56 64 80 91 91 87 85 85 80 78 74 65 72 170 184 167 142 101 51 17 313 298 301 291 266 256 255 253 254 259 265 269 271 271
115 113 111 106 100 95 92 89 85 84 84 86 88 90 91 89 87 84 80 76 75 74 74 72 68 66 67 65 60 55 60 76 92 91 83 74 68 65 62 63 64 60 70 182 156 119 138 89 61 32 338 318 319 327 328 311 288 270 265 268 271 272 277
112 112 110 107 104 99 96 93 89 85 84 80 77 81 91 92 86 81 75 68 67 69 67 63 60 59 59 59 59 56 58 68 80 85 78 67 62 59 55 56 68 73 73 82 85 78 76 82 81 65 32 5 5 18 24 19 5 330 295 281 274 271 273
111 109 108 107 105 102 100 99 94 88 83 76 71 74 85 88 83 75 68 62 62 62 58 56 56 57 55 53 54 54 57 66 75 77 74 69 67 67 65 64 63 54 55 65 71 73 72 71 73 69 55 39 35 41 40 30 21 7 346 326 304 294 292
112 112 108 104 103 101 100 101 95 87 80 75 72 75 81 84 80 71 63 60 59 53 46 43 46 55 56 52 51 55 58 66 76 79 77 78 78 76 75 76 76 70 65 66 68 67 63 59 58 58 52 38 34 41 41 33 27 23 15 4 350 334 321
113 113 110 107 106 102 98 96 92 87 82 78 80 80 81 82 76 65 61 59 53 44 41 38 35 46 54 51 50 51 55 65 76 81 81 82 82 80 75 73 74 73 68 64 61 58 55 51 50 53 51 41 36 40 41 36 33 33 29 21 15 11 6
113 112 112 111 110 108 103 98 93 90 84 82 84 82 81 84 75 63 58 52 42 36 39 41 37 35 43 49 50 48 50 61 71 76 77 78 78 76 71 66 65 63 58 55 52 50 48 43 40 42 41 36 34 36 37 37 37 38 37 29 21 17 13
117 116 117 114 112 113 110 104 98 93 87 84 85 83 81 81 71 60 53 44 35 33 39 39 38 38 42 53 56 51 50 57 65 68 68 67 66 66 62 58 57 55 51 49 47 44 41 36 30 28 25 23 26 29 30 33 35 36 34 28 22 20 17
121 120 120 118 116 117 114 108 103 97 92 86 82 78 74 72 65 57 48 37 28 30 36 34 31 35 41 51 61 57 54 56 60 61 59 55 52 54 54 53 55 56 53 50 45 40 35 29 22 18 14 12 14 18 22 26 30 33 30 22 17 19 20
124 122 122 120 119 118 115 112 107 101 93 86 80 75 67 62 59 51 41 31 24 24 27 27 25 25 26 32 45 55 55 54 55 54 51 47 44 46 50 52 56 59 57 51 46 38 29 23 17 14 10 7 6 10 15 20 25 28 25 19 15 16 16
124 123 123 121 119 119 117 113 109 103 94 86 82 78 71 64 58 50 39 29 26 26 22 22 28 25 18 15 20 32 45 51 52 47 46 47 45 45 46 48 52 56 53 46 40 32 25 21 18 15 11 8 6 5 8 14 19 18 16 13 13 15 13
126 125 125 125 124 123 120 114 109 103 97 92 88 85 83 76 66 57 50 44 44 44 40 46 49 46 44 44 47 56 68 70 67 57 51 48 44 41 42 43 44 46 42 37 31 27 25 24 22 18 12 7 5 4 7 12 13 9 8 9 12 15 15
130 127 127 130 129 126 121 116 111 107 102 100 98 96 94 86 73 63 59 59 62 68 72 72 69 65 64 69 75 80 79 75 67 60 56 53 46 42 42 41 40 40 39 35 30 27 27 26 25 19 12 8 6 4 4 9 11 9 9 10 12 15 15
134 131 130 131 130 127 123 119 114 110 108 107 106 103 99 91 78 68 62 58 60 70 76 73 69 66 63 62 63 64 65 65 62 60 61 62 59 54 46 38 34 33 33 33 32 30 28 28 26 21 14 13 14 10 5 7 13 17 20 19 17 16 14
134 131 131 131 129 126 123 119 113 109 108 109 108 103 99 94 83 72 64 57 54 58 65 66 64 61 57 54 54 56 60 65 64 61 58 55 50 44 35 28 28 29 27 27 27 27 26 28 28 24 20 22 28 31 29 25 25 27 26 22 18 14 13
133 130 131 131 128 125 122 118 112 109 110 111 107 101 97 92 83 71 59 51 47 47 53 58 62 59 54 54 57 58 60 61 57 53 52 49 43 34 23 11 10 18 22 21 18 16 19 23 26 26 26 28 30 33 33 30 26 21 17 14 11 10 11
135 134 134 133 130 127 124 120 116 115 118 118 110 102 95 83 74 66 40 22 24 32 40 49 58 58 52 50 54 55 53 51 46 42 40 39 37 33 26 15 6 4 7 10 10 10 12 18 22 22 22 23 23 20 18 16 13 10 8 6 5 6 8